Temperature
17 17 17 17 14 11 13 13 13 13 13 13 13 13 12 12 13 13 11 12 12 12 12 12 12 12 12 13 13 13 13 13 13 14 14 14 14 14 14 14 14 14 14 14 14 14 14 14 14
16 16 17 16 12 13 13 12 12 13 13 12 12 12 11 10 11 11 11 12 12 12 12 12 12 12 12 13 13 13 13 13 13 13 13 14 14 14 14 14 14 14 14 14 14 14 14 14 14
16 16 16 11 11 12 14 13 11 12 12 12 11 11 10 10 10 11 11 11 11 12 12 12 12 12 12 13 13 13 13 13 13 13 13 13 13 14 14 14 14 14 14 14 14 14 14 14 14
16 16 14 11 12 11 12 12 11 11 12 11 11 9 10 10 10 10 11 11 11 11 12 12 12 12 12 12 12 13 13 13 13 13 13 13 13 13 13 13 14 14 14 13 13 13 13 13 13
15 15 11 10 11 11 10 11 11 11 11 10 10 9 9 9 10 10 11 11 11 11 11 11 12 12 12 12 12 12 12 12 12 12 12 13 13 13 13 13 13 13 13 13 13 13 13 13 13
15 11 10 11 11 11 10 11 11 10 10 10 10 8 9 9 10 10 10 11 11 11 11 11 11 11 11 12 12 12 12 12 12 12 12 12 12 13 13 13 13 13 13 13 13 13 13 13 13
13 9 10 11 10 11 11 11 10 9 9 10 10 8 8 9 10 10 10 10 10 10 11 11 11 11 11 11 11 11 12 12 12 12 12 12 12 12 12 12 12 12 12 12 12 12 12 12 12
14 8 10 9 10 11 10 11 10 10 9 10 10 8 8 9 9 10 10 10 10 10 10 10 11 11 11 11 11 11 11 11 11 11 11 12 12 12 12 12 12 12 12 12 12 12 12 12 12
13 9 9 9 10 10 10 9 9 10 9 9 9 9 9 9 9 9 10 10 10 10 10 10 10 10 10 11 10 10 11 11 11 11 11 11 11 11 11 11 11 12 12 12 11 11 11 11 12
11 9 10 9 9 9 9 9 9 9 8 7 8 8 9 9 9 9 10 10 10 10 10 10 10 10 10 10 10 10 10 10 10 10 10 11 11 11 11 11 11 11 11 11 11 11 11 11 11
8 8 8 9 9 9 9 9 9 8 7 8 8 8 8 8 9 9 9 9 9 9 9 9 9 9 9 10 10 10 10 10 10 10 10 10 10 10 10 10 11 11 11 11 11 11 11 11 11
7 7 8 8 9 9 8 8 7 7 8 9 9 9 8 8 9 9 8 8 8 9 9 9 9 9 9 9 9 9 9 9 9 9 9 9 10 10 10 10 10 10 10 10 10 10 10 10 10
7 7 7 8 8 8 8 7 6 7 8 8 8 8 8 8 8 8 8 8 8 8 8 8 8 8 8 8 9 9 9 9 9 9 9 9 9 9 9 9 9 9 10 10 10 10 10 10 10
6 6 7 7 7 7 6 6 6 6 7 7 7 7 7 8 8 8 7 8 8 8 8 8 8 8 8 8 8 8 8 8 8 8 8 8 8 8 9 9 9 9 9 9 9 9 9 9 9
7 6 7 6 6 6 6 6 5 6 6 6 6 7 7 7 7 7 7 7 7 7 7 7 7 7 7 7 7 7 8 8 8 8 8 8 8 8 8 8 8 8 8 8 8 8 9 9 9
6 6 7 6 6 6 6 6 5 6 6 5 5 6 6 6 6 6 6 6 7 7 7 7 7 7 7 7 7 7 7 7 7 7 7 7 7 7 7 8 8 8 8 8 8 8 8 8 8
6 6 6 6 5 5 5 5 4 5 5 4 4 5 5 5 5 6 6 6 6 6 6 6 6 6 6 6 6 6 6 6 6 7 7 7 7 7 7 7 7 7 7 7 7 7 7 8 8
5 5 5 5 5 4 4 3 4 3 3 3 3 3 4 4 5 5 5 5 5 5 5 5 5 5 5 5 5 5 6 6 6 6 6 6 6 6 6 6 7 7 7 7 7 7 7 7 7
5 4 4 4 4 3 3 3 3 3 2 2 2 2 3 4 4 4 4 4 5 5 5 5 5 5 5 5 5 5 5 5 5 5 5 5 6 6 6 6 6 6 6 6 6 6 6 7 7
4 4 4 4 3 3 2 2 2 2 1 2 2 2 2 3 3 3 4 4 4 4 4 4 4 4 4 4 4 4 4 4 4 4 5 5 5 5 5 5 5 5 5 5 6 6 6 6 6
4 3 3 3 3 2 2 2 2 2 1 1 1 2 2 2 3 3 3 3 3 3 3 3 3 3 3 3 3 3 3 4 4 4 4 4 4 4 4 4 4 5 5 5 5 5 5 5 5
4 3 3 3 2 1 2 2 2 1 0 0 0 1 1 2 2 2 3 3 3 3 3 3 3 3 2 2 3 3 3 3 3 3 3 3 4 4 4 4 4 4 4 4 4 4 4 5 5
2 2 2 2 1 0 0 1 2 1 1 1 -0 0 0 1 1 2 2 2 2 2 2 2 2 2 2 2 2 2 2 2 2 2 3 3 3 3 3 3 3 3 3 3 4 4 4 4 4
1 1 1 -0 -0 1 0 0 1 0 1 1 -0 0 0 1 1 1 2 2 2 2 2 2 2 2 2 2 1 1 2 2 2 2 2 2 2 2 3 3 3 3 3 3 3 3 3 3 3
1 1 1 1 0 1 -0 0 1 0 -0 -0 -0 -0 0 0 0 1 1 1 1 1 1 1 1 1 1 1 1 1 1 1 1 1 1 1 2 2 2 2 2 2 2 2 2 2 2 2 2
0 1 2 2 1 0 -1 -1 0 -1 -1 -1 -1 -0 -0 -0 0 0 0 1 1 1 1 0 0 1 0 1 1 0 0 0 0 1 1 1 1 1 1 1 1 1 1 2 2 2 2 2 2
0 0 0 -0 -1 -1 -1 -2 -1 -1 -2 -2 -2 -1 -1 -1 -0 -0 -0 -0 -0 -0 -0 -0 -0 -0 -0 -0 -0 -0 -0 -0 -0 -0 -0 -0 -0 0 0 1 1 1 1 1 1 1 1 1 1
-0 -1 -1 -0 0 1 -0 -1 -0 -0 -1 -2 -2 -2 -2 -1 -1 -1 -1 -1 -1 -1 -1 -1 -1 -1 -1 -1 -1 -1 -1 -1 -1 -1 -1 -1 -1 -1 -0 -0 0 0 0 0 0 0 1 1 1
-1 -1 -1 -1 -1 -0 -0 0 -1 -1 -2 -2 -3 -2 -2 -1 -1 -1 -1 -1 -1 -1 -1 -1 -1 -1 -1 -1 -1 -1 -1 -1 -1 -2 -2 -2 -1 -1 -1 -1 -1 -1 -1 -0 -0 -0 -0 -0 0
-2 -2 -2 -1 -1 -3 -2 -0 -2 -3 -3 -3 -3 -2 -2 -2 -2 -2 -2 -2 -2 -2 -2 -2 -2 -2 -2 -2 -2 -2 -2 -2 -2 -2 -2 -2 -2 -2 -2 -2 -1 -1 -1 -1 -1 -1 -1 -1 -1
Wind_Speed
9 5 2 4 5 4 3 4 3 2 2 1 2 4 6 5 4 3 0 1 2 2 2 4 7 9 9 10 10 11 11 11 11 11 12 12 12 12 12 12 12 12 12 13 13 13 13 13 13
3 2 5 5 5 2 5 4 5 4 3 4 4 4 5 3 2 3 1 1 2 3 4 5 8 9 10 10 10 10 10 11 11 11 11 11 11 11 11 12 12 12 12 13 13 12 13 12 12
2 4 5 5 4 7 6 4 5 2 3 3 4 4 3 2 1 1 0 2 4 5 6 6 10 10 10 10 10 10 10 10 10 10 11 11 11 11 11 11 11 11 12 12 12 12 12 12 12
3 5 5 4 4 5 4 3 4 4 3 3 4 4 2 3 0 1 2 4 6 7 8 7 10 10 10 10 10 10 10 10 10 10 10 11 10 10 11 11 11 11 11 11 12 11 11 12 12
4 5 4 0 4 3 2 2 4 4 3 2 4 4 1 3 3 4 5 6 6 6 8 9 10 10 10 10 10 10 10 10 10 10 10 10 10 10 11 10 10 10 10 11 11 11 11 11 11
5 5 4 4 5 2 2 2 4 3 3 3 5 4 2 2 4 4 5 6 7 7 9 10 11 11 10 10 10 10 10 10 10 10 10 10 10 10 10 10 10 10 10 10 10 10 10 10 10
5 5 5 5 4 3 3 3 4 4 4 3 5 5 1 0 2 4 6 8 9 9 10 10 11 11 11 10 11 10 9 9 10 10 11 11 10 10 10 10 9 9 10 9 9 10 9 10 10
5 5 3 4 5 5 2 3 2 4 3 2 4 6 4 3 3 5 6 7 8 9 9 9 11 12 11 11 11 11 10 10 10 10 11 11 10 10 10 9 9 9 9 9 9 10 9 10 10
4 4 4 6 7 4 2 3 2 2 5 3 2 1 2 7 7 7 6 5 5 6 7 8 9 10 11 10 11 11 11 10 10 10 10 10 9 9 9 9 9 8 9 9 9 9 9 9 9
4 4 6 3 4 3 3 3 3 4 3 2 2 3 6 8 8 7 5 4 3 4 4 6 7 8 9 9 10 10 9 10 9 9 9 9 8 8 8 8 8 8 9 9 9 9 9 8 7
3 4 2 0 1 2 3 2 2 6 3 5 5 6 7 7 6 6 5 4 3 2 3 5 5 7 7 7 8 8 8 9 9 9 8 8 8 8 8 8 8 8 8 8 8 9 8 7 6
3 0 1 0 1 1 2 2 1 2 3 2 5 8 9 9 7 7 6 4 3 3 3 3 4 5 6 7 6 7 7 7 8 8 9 7 6 6 7 6 7 7 6 6 6 6 6 6 6
2 1 0 1 3 3 3 2 1 2 1 3 7 8 8 7 5 3 3 3 3 2 2 2 4 4 5 6 5 6 6 7 7 8 8 8 6 5 5 5 5 6 6 5 5 5 5 5 5
1 1 0 1 1 1 3 0 1 3 3 5 6 6 6 6 5 3 2 2 2 2 2 2 3 4 5 5 4 5 6 6 7 8 8 8 7 5 4 4 5 5 5 5 4 3 3 3 3
2 2 2 0 1 1 3 2 3 3 5 5 4 4 4 3 4 3 3 2 2 3 2 2 2 4 4 4 4 5 5 6 6 7 7 7 7 6 5 4 4 4 4 4 4 4 3 3 3
2 2 1 2 2 1 3 5 2 2 5 4 3 3 3 2 2 2 2 2 2 3 3 2 3 4 4 4 4 4 5 5 6 7 7 7 7 6 6 4 4 4 4 3 3 3 2 2 2
2 1 3 3 1 1 3 6 3 1 4 4 3 3 3 2 1 1 1 2 2 3 4 3 3 4 3 4 4 4 5 5 5 6 6 7 6 6 5 4 4 4 4 3 2 2 2 1 2
4 4 3 4 1 1 3 6 5 2 4 4 4 3 3 3 2 1 1 2 3 4 4 4 4 4 3 3 4 3 4 4 5 5 6 6 6 5 5 4 5 4 3 3 3 2 2 1 1
4 4 4 3 1 0 4 7 8 4 3 4 4 4 4 4 1 1 2 3 4 4 4 4 4 3 3 2 2 2 2 2 3 4 5 5 6 6 4 4 4 4 2 2 2 2 2 2 1
3 3 2 2 2 0 3 7 7 5 5 5 5 5 4 2 1 2 2 3 3 3 3 3 3 2 2 1 1 0 0 1 1 3 4 5 5 5 4 3 2 3 2 2 2 2 1 2 2
3 5 5 3 3 2 3 6 4 2 2 2 2 3 3 4 4 3 3 3 2 2 2 2 2 2 2 2 2 2 2 2 2 3 3 5 5 4 4 3 2 2 2 1 2 1 1 1 2
5 3 4 3 1 3 1 5 6 3 2 3 3 3 3 2 3 3 3 3 3 2 2 2 2 2 1 2 2 2 1 1 2 2 3 5 5 4 4 3 3 1 1 1 2 2 1 1 2
3 2 3 2 3 2 1 3 7 2 4 6 5 4 3 3 3 3 3 3 2 2 2 2 2 2 1 1 2 1 0 0 1 2 3 4 4 4 4 3 3 2 2 2 2 2 2 1 2
4 4 5 4 3 4 6 6 7 5 6 4 4 4 4 3 3 2 2 1 1 1 1 1 2 1 1 1 1 2 2 1 1 2 2 3 3 3 3 4 3 3 3 3 3 2 2 2 2
2 4 2 3 1 6 3 5 8 6 4 5 5 5 4 3 3 2 2 2 1 1 1 0 1 1 1 1 1 2 2 2 3 2 2 3 3 3 4 4 3 3 3 3 3 3 3 3 3
4 5 6 5 5 4 1 6 6 4 2 2 2 3 2 3 3 3 3 3 3 2 2 1 1 1 2 2 2 2 3 2 3 3 3 3 3 4 4 4 4 5 4 4 3 3 3 3 3
3 3 3 4 1 3 5 6 7 2 2 2 2 1 2 3 2 3 3 3 3 3 3 2 2 2 2 2 2 3 3 3 4 4 3 3 4 5 4 4 5 5 4 4 4 4 4 4 4
2 4 4 4 4 5 5 5 5 4 4 3 3 3 3 2 2 2 2 2 2 2 2 1 2 3 3 2 2 3 3 4 4 4 4 5 5 5 5 5 5 5 5 4 4 4 4 4 4
2 2 3 3 3 5 4 6 4 6 5 4 4 3 3 3 3 2 2 1 1 1 1 2 2 2 2 3 3 3 3 4 4 4 5 5 6 6 5 5 5 5 5 5 4 5 5 5 5
3 4 5 4 5 4 4 7 2 3 3 3 3 3 3 3 2 2 2 1 1 1 2 2 2 3 3 3 3 4 4 4 4 5 6 6 6 6 6 6 6 6 6 5 5 6 6 6 6
Wind_Direction
346 359 62 58 59 59 213 228 193 178 186 107 91 111 130 132 144 154 152 31 54 61 53 94 94 94 88 84 83 78 75 73 72 70 68 67 66 65 63 63 64 66 68 69 69 68 70 72 76
345 19 55 63 104 172 247 221 196 194 159 116 69 77 88 86 56 94 100 352 67 70 71 91 96 95 90 84 81 80 76 74 74 71 70 68 67 65 62 63 64 65 67 69 69 69 69 70 74
15 46 83 86 139 188 212 207 194 147 118 112 89 61 92 102 77 130 342 96 68 57 67 93 97 93 92 87 82 78 75 74 75 72 71 69 68 66 63 63 64 65 67 68 69 70 70 70 72
72 51 58 92 201 217 210 203 167 140 101 75 114 93 67 29 36 154 96 90 80 59 61 81 96 95 91 89 83 78 75 73 75 74 72 69 67 66 65 64 63 66 68 68 69 69 69 69 71
58 81 82 117 231 242 231 197 158 149 149 120 123 119 102 8 40 84 95 87 88 65 61 70 85 89 87 85 82 79 75 71 71 71 73 70 68 66 64 64 64 66 67 68 69 70 69 70 71
59 75 119 211 231 249 246 186 146 141 134 127 129 129 150 27 57 85 86 81 78 72 63 66 71 77 80 79 77 76 74 70 68 66 67 68 67 65 62 62 64 66 65 64 67 68 71 71 71
115 117 174 193 205 235 222 151 150 151 150 171 150 133 158 54 82 94 85 77 68 63 60 57 61 65 66 72 72 70 70 68 66 63 61 61 62 62 60 58 61 63 63 61 64 67 72 73 71
124 119 153 190 194 224 185 138 132 145 157 114 131 148 191 193 135 99 83 73 67 58 56 54 57 58 58 59 64 64 63 63 64 62 61 58 58 57 56 54 55 59 60 57 63 62 68 73 70
97 97 197 205 193 211 158 131 58 72 105 87 64 124 138 129 124 106 85 67 65 58 49 51 55 55 56 58 56 59 57 55 58 59 61 58 53 51 51 51 52 54 58 55 60 60 64 69 68
97 170 214 207 183 175 156 151 152 112 102 118 81 59 101 122 130 127 121 117 93 68 51 49 56 55 56 56 53 52 53 50 52 54 57 57 55 51 49 50 52 50 51 52 57 56 60 61 59
126 177 194 214 128 138 140 137 141 139 186 200 182 156 140 135 140 145 142 135 122 103 68 52 53 58 59 58 56 51 49 48 46 48 53 57 54 50 47 45 42 43 46 46 44 49 51 55 57
129 262 167 285 88 115 145 135 124 180 210 145 152 147 149 154 163 168 163 148 122 101 79 59 58 63 61 62 58 56 49 44 41 40 43 51 48 42 41 42 37 38 42 43 40 46 45 49 52
150 208 73 82 84 98 92 106 164 247 230 99 116 132 153 161 160 152 143 142 135 119 97 67 69 71 68 66 59 57 51 46 40 40 39 43 44 39 38 35 36 34 37 41 36 42 41 40 45
156 153 235 29 106 110 119 69 115 252 125 115 124 141 155 159 155 138 133 143 140 137 127 96 83 82 79 71 61 58 55 51 43 36 36 40 39 39 39 37 33 29 31 32 35 34 32 29 41
99 63 4 342 142 142 105 311 223 216 128 127 140 151 149 146 141 158 169 169 166 151 132 122 108 85 82 77 64 59 57 54 47 33 32 38 36 33 35 37 31 21 25 32 36 34 32 24 25
66 75 282 283 152 150 141 246 224 169 146 161 168 162 152 145 144 148 136 137 147 142 129 110 97 83 76 73 70 65 58 53 45 35 30 31 32 31 33 33 24 17 24 33 30 19 11 6 357
40 210 236 286 142 130 176 238 240 161 161 188 191 183 171 155 123 127 119 125 133 141 131 114 94 88 76 67 65 62 58 49 41 37 29 22 23 29 34 29 19 24 29 24 16 13 354 352 342
215 212 230 242 306 104 221 252 273 230 191 212 206 197 191 198 218 182 120 112 112 113 112 108 93 84 76 66 59 50 47 36 34 34 25 19 16 22 33 30 19 25 27 17 10 356 350 341 317
162 176 220 251 333 190 240 265 274 262 221 230 227 207 209 223 221 120 110 103 98 93 98 103 96 88 84 73 65 55 30 9 11 16 19 20 18 18 32 29 22 21 18 1 3 4 353 357 353
154 179 228 296 19 263 290 282 273 248 226 220 212 212 212 205 153 134 118 113 117 120 116 113 109 100 94 89 82 115 98 354 347 357 12 14 16 13 18 29 20 14 9 11 7 18 342 335 352
209 200 207 223 4 34 339 300 269 254 212 220 221 210 203 192 192 182 168 158 140 143 154 147 137 114 96 83 74 53 40 15 9 360 355 356 4 3 6 4 9 8 8 344 319 347 348 308 315
241 209 180 172 115 283 75 282 275 244 250 235 233 224 216 204 184 179 176 173 176 186 171 156 145 124 114 108 107 110 90 320 306 319 324 334 352 357 353 354 353 349 350 311 302 328 302 296 290
197 97 130 151 160 290 249 221 277 256 248 241 229 225 220 206 190 188 185 187 190 176 169 167 147 132 134 130 140 142 140 271 311 322 327 327 336 344 345 338 338 327 308 294 289 301 306 279 277
128 78 63 64 94 259 221 196 268 231 221 224 215 218 218 212 207 212 193 149 114 86 103 148 150 160 166 159 157 172 197 230 290 317 318 317 316 322 327 323 312 311 304 284 270 270 273 274 272
99 102 36 344 299 248 185 207 249 247 224 206 211 216 216 212 206 208 192 176 174 173 173 134 185 231 207 189 206 215 218 220 230 250 269 293 304 304 300 308 301 292 292 288 276 259 269 271 266
196 162 172 208 230 269 232 230 254 265 256 232 223 218 214 218 213 215 212 196 195 199 208 203 224 266 237 229 242 240 234 230 241 244 244 257 267 275 282 284 285 282 277 284 283 257 254 255 259
152 199 167 141 147 267 258 276 297 274 274 246 242 227 232 236 232 230 224 206 201 205 217 215 226 258 263 257 253 245 239 239 247 253 252 255 269 277 277 276 274 279 278 270 281 265 249 248 252
156 147 122 158 197 246 272 262 247 262 252 238 228 231 249 250 255 255 235 220 227 224 236 235 233 247 255 255 264 279 262 253 247 252 258 259 268 270 270 271 270 271 276 269 266 276 254 244 254
140 150 165 170 189 196 254 265 228 222 225 223 235 238 242 249 251 248 252 249 248 268 256 258 258 273 276 272 273 274 274 275 259 250 253 258 265 266 260 262 265 266 265 262 256 267 256 246 254
190 188 165 184 231 209 226 269 287 228 233 215 246 263 263 260 254 241 244 262 284 271 265 263 268 275 279 278 272 266 269 274 271 263 258 260 260 264 260 260 260 262 262 257 254 263 260 247 251
Height
1495 1496 1498 1501 1506 1518 1520 1515 1512 1512 1512 1512 1512 1513 1515 1518 1522 1528 1525 1524 1526 1528 1530 1532 1533 1534 1535 1536 1536 1537 1537 1537 1538 1538 1538 1538 1539 1539 1540 1540 1540 1540 1541 1541 1541 1542 1542 1542 1543
1494 1496 1499 1500 1512 1523 1519 1512 1511 1510 1511 1511 1512 1514 1515 1518 1519 1521 1522 1524 1526 1528 1530 1531 1533 1534 1535 1536 1536 1537 1537 1538 1538 1538 1539 1539 1539 1539 1540 1540 1540 1540 1541 1541 1542 1542 1542 1543 1543
1494 1496 1499 1504 1514 1517 1512 1509 1509 1509 1510 1511 1512 1514 1516 1518 1519 1520 1522 1524 1526 1528 1530 1532 1533 1534 1535 1536 1536 1537 1537 1538 1538 1539 1539 1539 1539 1540 1540 1540 1540 1541 1541 1541 1542 1542 1543 1543 1544
1495 1498 1499 1508 1511 1510 1507 1506 1507 1508 1510 1511 1512 1515 1517 1519 1520 1521 1522 1524 1526 1528 1530 1532 1533 1534 1535 1536 1536 1537 1537 1538 1538 1539 1539 1539 1539 1539 1540 1540 1540 1541 1541 1541 1542 1542 1543 1543 1544
1495 1496 1505 1513 1510 1508 1506 1505 1506 1507 1509 1511 1512 1515 1517 1519 1519 1521 1522 1524 1526 1528 1530 1532 1533 1534 1535 1536 1536 1537 1537 1538 1538 1539 1539 1539 1540 1540 1540 1540 1540 1541 1541 1542 1542 1542 1543 1543 1544
1495 1497 1510 1513 1509 1506 1505 1505 1506 1507 1509 1510 1512 1515 1517 1519 1519 1521 1523 1524 1526 1528 1530 1531 1533 1534 1535 1535 1536 1536 1537 1538 1538 1538 1539 1539 1540 1540 1540 1540 1540 1541 1541 1542 1542 1542 1542 1543 1544
1495 1501 1507 1507 1508 1506 1504 1504 1505 1506 1508 1510 1511 1514 1516 1517 1519 1520 1522 1524 1526 1528 1529 1531 1532 1533 1534 1535 1536 1536 1537 1537 1538 1538 1538 1539 1539 1540 1540 1540 1540 1540 1541 1541 1542 1542 1542 1543 1543
1493 1500 1506 1508 1506 1504 1502 1503 1504 1505 1507 1510 1511 1513 1514 1516 1518 1520 1522 1524 1525 1527 1528 1530 1531 1532 1533 1534 1535 1536 1536 1537 1537 1538 1538 1538 1539 1539 1540 1540 1540 1540 1541 1541 1541 1542 1542 1543 1543
1493 1503 1506 1504 1503 1501 1501 1502 1504 1505 1507 1508 1510 1511 1513 1514 1516 1519 1520 1522 1524 1526 1527 1529 1530 1531 1533 1534 1534 1535 1536 1536 1537 1537 1537 1538 1538 1538 1539 1539 1540 1540 1540 1541 1541 1541 1542 1542 1543
1493 1502 1500 1499 1498 1499 1500 1501 1503 1505 1506 1508 1509 1510 1511 1513 1515 1517 1518 1520 1522 1524 1526 1528 1529 1531 1532 1533 1534 1534 1535 1536 1536 1537 1537 1537 1537 1538 1538 1539 1539 1540 1540 1540 1540 1541 1541 1542 1542
1493 1498 1497 1497 1497 1498 1499 1501 1502 1503 1506 1505 1506 1507 1509 1511 1513 1515 1517 1519 1521 1523 1525 1527 1528 1530 1531 1532 1533 1533 1534 1535 1535 1536 1536 1536 1537 1537 1537 1538 1538 1539 1539 1539 1539 1540 1541 1541 1542
1495 1496 1496 1497 1497 1498 1499 1501 1503 1503 1503 1504 1505 1506 1507 1509 1511 1513 1516 1518 1520 1522 1524 1526 1527 1528 1529 1531 1532 1532 1533 1534 1534 1535 1535 1535 1536 1536 1536 1537 1537 1537 1538 1538 1538 1538 1539 1540 1541
1495 1496 1496 1496 1497 1498 1499 1501 1502 1502 1502 1503 1503 1505 1506 1508 1510 1513 1515 1517 1519 1520 1522 1524 1526 1527 1528 1529 1530 1531 1532 1532 1533 1533 1534 1534 1535 1535 1535 1536 1536 1536 1536 1537 1537 1537 1538 1539 1539
1494 1495 1495 1496 1496 1497 1499 1501 1502 1500 1501 1501 1502 1503 1505 1506 1508 1511 1513 1514 1516 1518 1520 1522 1524 1525 1526 1527 1528 1529 1530 1531 1531 1532 1533 1533 1533 1534 1534 1534 1535 1535 1535 1535 1536 1536 1537 1537 1538
1494 1496 1496 1496 1496 1498 1499 1501 1501 1499 1500 1500 1501 1502 1503 1505 1507 1508 1511 1512 1514 1516 1518 1520 1522 1523 1525 1526 1527 1528 1529 1529 1530 1530 1531 1532 1532 1532 1533 1533 1533 1533 1533 1534 1534 1535 1535 1535 1535
1495 1497 1499 1496 1497 1498 1501 1501 1499 1498 1498 1499 1499 1500 1502 1503 1505 1507 1509 1511 1513 1514 1516 1518 1519 1521 1522 1523 1525 1526 1526 1527 1528 1528 1529 1530 1530 1530 1531 1531 1531 1531 1532 1532 1532 1532 1533 1533 1533
1498 1501 1500 1498 1497 1498 1500 1499 1497 1497 1497 1497 1498 1499 1500 1501 1503 1505 1507 1509 1511 1512 1514 1515 1517 1518 1520 1521 1522 1523 1524 1525 1526 1526 1527 1527 1528 1528 1529 1529 1529 1529 1529 1530 1530 1530 1530 1530 1531
1500 1501 1500 1499 1498 1499 1501 1500 1496 1496 1496 1495 1496 1496 1497 1498 1501 1503 1505 1507 1508 1510 1512 1513 1515 1516 1518 1519 1520 1521 1522 1523 1523 1524 1524 1524 1525 1526 1526 1526 1527 1527 1527 1527 1528 1528 1528 1528 1529
1497 1499 1501 1500 1499 1501 1501 1499 1496 1494 1495 1494 1494 1494 1495 1496 1499 1501 1503 1505 1506 1508 1510 1511 1512 1514 1515 1516 1517 1518 1519 1520 1521 1521 1521 1522 1522 1523 1523 1524 1524 1524 1525 1525 1525 1525 1526 1526 1526
1497 1500 1501 1501 1500 1501 1502 1500 1495 1492 1492 1491 1491 1492 1493 1494 1496 1498 1500 1502 1504 1506 1507 1509 1510 1511 1513 1514 1515 1516 1516 1517 1518 1518 1518 1519 1519 1520 1520 1521 1521 1521 1522 1522 1522 1523 1523 1523 1524
1496 1499 1500 1501 1502 1503 1504 1498 1493 1490 1490 1490 1490 1490 1491 1492 1494 1496 1498 1500 1502 1504 1505 1507 1508 1509 1510 1511 1512 1513 1514 1514 1515 1515 1515 1516 1516 1517 1517 1517 1518 1518 1519 1519 1519 1520 1520 1519 1521
1496 1496 1497 1500 1505 1508 1507 1506 1493 1490 1490 1488 1488 1488 1488 1490 1492 1494 1495 1497 1499 1501 1503 1505 1506 1507 1508 1509 1510 1510 1510 1511 1511 1512 1512 1513 1514 1514 1514 1514 1515 1515 1515 1516 1516 1517 1517 1517 1517
1495 1496 1499 1501 1506 1512 1511 1511 1495 1490 1489 1486 1485 1486 1486 1488 1489 1491 1493 1495 1497 1499 1501 1502 1503 1504 1506 1507 1507 1507 1508 1508 1509 1509 1509 1510 1510 1511 1511 1511 1512 1512 1512 1512 1513 1513 1514 1514 1514
1496 1499 1503 1508 1510 1510 1507 1510 1494 1490 1484 1482 1483 1483 1484 1486 1487 1489 1491 1493 1494 1496 1498 1499 1500 1502 1503 1504 1504 1505 1505 1505 1505 1505 1505 1506 1506 1507 1507 1508 1508 1508 1508 1508 1509 1509 1510 1510 1511
1496 1501 1508 1509 1514 1507 1505 1504 1491 1481 1480 1479 1480 1481 1482 1483 1485 1486 1488 1489 1491 1493 1494 1496 1497 1498 1499 1500 1501 1501 1502 1502 1502 1502 1502 1502 1502 1502 1503 1503 1504 1504 1504 1504 1505 1505 1505 1506 1506
1497 1497 1503 1508 1509 1506 1507 1502 1486 1479 1478 1478 1478 1479 1480 1481 1482 1483 1485 1487 1488 1490 1491 1492 1494 1494 1495 1496 1497 1498 1498 1498 1498 1498 1498 1498 1498 1498 1499 1499 1499 1500 1500 1500 1500 1500 1501 1501 1502
1496 1498 1499 1506 1512 1512 1504 1499 1487 1478 1477 1477 1477 1477 1478 1479 1480 1481 1483 1484 1485 1486 1488 1489 1490 1490 1491 1492 1493 1493 1493 1493 1494 1494 1494 1494 1494 1494 1494 1495 1495 1495 1495 1495 1495 1495 1496 1496 1497
1494 1497 1502 1503 1503 1502 1497 1497 1487 1478 1476 1476 1476 1476 1476 1478 1478 1479 1480 1481 1482 1483 1484 1485 1486 1487 1487 1488 1488 1488 1489 1489 1489 1489 1489 1489 1489 1489 1489 1489 1489 1490 1490 1490 1490 1490 1490 1491 1491
1497 1498 1498 1501 1501 1500 1498 1487 1477 1475 1473 1474 1474 1474 1475 1476 1476 1477 1478 1478 1479 1480 1481 1482 1482 1483 1483 1483 1483 1483 1484 1484 1484 1484 1484 1484 1484 1484 1484 1484 1484 1484 1484 1484 1485 1485 1485 1485 1486
1494 1495 1497 1497 1500 1504 1499 1486 1474 1473 1472 1472 1473 1473 1474 1474 1474 1475 1475 1475 1476 1477 1477 1478 1478 1479 1479 1479 1479 1479 1479 1479 1478 1478 1479 1479 1479 1479 1478 1478 1478 1478 1478 1479 1479 1479 1479 1479 1480